Zurück zum Katalog

FENGYUN 1C DEB

AktivPO
NORAD 31348·DEBRIS·🇨🇳 China

Gestartet May 10, 1999 von Taiyuan Satellite Launch Center

Loading…

Nächste Überflüge (nächste 24 Stunden)

TLE

AktuellSource: Space-Track

Epoche: Sep 14, 2026, 10:14 UTC

1 31348U 99025BRC 26257.42691516  .00002205  00000-0  77502-3 0  9993
2 31348  99.1483 229.2713 0033346 344.8120 169.3525 14.35740127  1952

Verfolge FENGYUN 1C DEB in Echtzeit mit AllMySat

Download on the App Store